This is the latest recevied weather packets stored in our database for station/object DL1VED. If no packets are shown the sender has not sent any weather packets the latest 10 day(s).
| Time | Temp. | Humidity | Pressure | Rain* | Wind** | Luminosity | Snow |
|---|---|---|---|---|---|---|---|
| 1777994048 | 15° C | 83% | 1006.8 hPa | 0.51 mm | - | - | - |
| 1777993148 | 15° C | 83% | 1006.9 hPa | 0.25 mm | - | - | - |
| 1777992248 | 15° C | 82% | 1006.9 hPa | 0.76 mm | - | - | - |
| 1777991348 | 15° C | 83% | 1007 hPa | 1.27 mm | - | - | - |
| 1777990448 | 15° C | 82% | 1007 hPa | 1.27 mm | - | - | - |
| 1777989548 | 15° C | 82% | 1007 hPa | 1.27 mm | - | - | - |
| 1777988648 | 15.56° C | 80% | 1007.2 hPa | 0.76 mm | - | - | - |
| 1777987748 | 15.56° C | 79% | 1007.2 hPa | 0.25 mm | - | - | - |
| 1777986848 | 16.11° C | 72% | 1007.3 hPa | 0 mm | - | - | - |
| 1777985948 | 16.67° C | 68% | 1007.3 hPa | 0 mm | - | - | - |
| 1777985048 | 17.22° C | 67% | 1007.3 hPa | 0 mm | - | - | - |
| 1777984148 | 17.78° C | 65% | 1007.3 hPa | 0 mm | - | - | - |
| 1777983248 | 17.78° C | 63% | 1007.3 hPa | 0 mm | - | - | - |
| 1777982348 | 17.78° C | 64% | 1007.3 hPa | 0 mm | - | - | - |
| 1777981448 | 18.89° C | 56% | 1007.3 hPa | 0 mm | - | - | - |
| 1777980548 | 19.44° C | 52% | 1007.4 hPa | 0 mm | - | - | - |
| 1777979648 | 19.44° C | 53% | 1007.6 hPa | 0 mm | - | - | - |
| 1777978748 | 18.89° C | 56% | 1007.7 hPa | 0 mm | - | - | - |
| 1777977848 | 19.44° C | 56% | 1007.8 hPa | 0 mm | - | - | - |
| 1777976948 | 18.89° C | 56% | 1007.9 hPa | 0 mm | - | - | - |
| 1777976048 | 19.44° C | 56% | 1008 hPa | 0 mm | - | - | - |
| 1777975148 | 18.89° C | 58% | 1008 hPa | 0 mm | - | - | - |
| 1777974248 | 18.89° C | 57% | 1008 hPa | 0 mm | - | - | - |
| 1777973348 | 18.33° C | 58% | 1008.2 hPa | 0 mm | - | - | - |
| 1777972448 | 18.33° C | 60% | 1008.2 hPa | 0 mm | - | - | - |
* Rain latest hour (hover to see other rain measurements)
** Current wind speed in m/s (hover to see current wind gust speed)